Total_Precipitation_Accumulation
0.74 0.79 0.79 0.74 0.76 0.81 0.80 0.75 0.68 0.72 0.79 0.91 0.95 1.09 1.25 1.43 1.61 1.76 1.78 1.78 1.81 1.79 1.73 1.82 1.94 2.03 2.16 2.18 2.16 2.04 1.88 1.84 1.76 1.60 1.40 1.26 1.39 1.45 1.40 1.34 1.22 1.13 1.08
0.73 0.75 0.77 0.69 0.64 0.68 0.69 0.70 0.61 0.58 0.62 0.72 0.85 1.05 1.16 1.25 1.30 1.38 1.46 1.51 1.54 1.58 1.57 1.55 1.62 1.74 1.89 2.04 2.12 2.06 2.05 1.95 1.85 1.82 1.66 1.40 1.29 1.37 1.44 1.51 1.42 1.22 1.15
0.87 0.93 0.86 0.72 0.68 0.66 0.64 0.66 0.61 0.58 0.61 0.66 0.80 0.96 1.01 1.06 1.10 1.12 1.23 1.31 1.32 1.31 1.36 1.33 1.35 1.45 1.59 1.72 1.81 1.88 2.00 2.04 2.03 1.93 1.85 1.66 1.42 1.42 1.47 1.48 1.50 1.60 1.36
1.13 1.09 0.92 0.79 0.71 0.65 0.62 0.60 0.60 0.60 0.63 0.69 0.85 0.94 0.95 0.91 1.00 1.03 1.09 1.13 1.10 1.05 1.08 1.09 1.14 1.19 1.26 1.38 1.53 1.74 1.93 2.04 2.11 2.10 2.00 1.77 1.61 1.57 1.55 1.54 1.61 1.68 1.67
1.08 0.97 0.83 0.70 0.60 0.55 0.58 0.55 0.57 0.63 0.65 0.71 0.77 0.88 0.92 0.90 0.93 1.00 0.99 0.93 0.93 0.92 0.88 0.79 0.81 0.88 0.89 0.97 1.02 1.31 1.56 1.79 1.93 2.00 1.98 1.84 1.63 1.52 1.40 1.44 1.57 1.74 1.82
0.96 0.83 0.66 0.58 0.56 0.52 0.50 0.47 0.46 0.48 0.54 0.59 0.64 0.80 0.92 0.82 0.94 0.93 0.85 0.78 0.76 0.80 0.77 0.70 0.68 0.72 0.63 0.60 0.64 0.85 1.15 1.36 1.55 1.73 1.79 1.68 1.54 1.46 1.50 1.51 1.51 1.57 1.60
0.69 0.64 0.52 0.45 0.43 0.41 0.40 0.40 0.42 0.44 0.47 0.52 0.57 0.73 0.83 0.91 0.86 0.71 0.74 0.74 0.75 0.77 0.79 0.81 0.74 0.69 0.77 0.68 0.62 0.69 0.78 0.89 1.05 1.32 1.54 1.54 1.63 1.56 1.47 1.41 1.43 1.47 1.47
0.59 0.59 0.50 0.42 0.39 0.38 0.36 0.37 0.45 0.46 0.44 0.49 0.55 0.59 0.67 0.80 0.74 0.60 0.64 0.64 0.74 0.82 0.84 0.93 0.94 0.88 0.85 0.93 0.88 0.89 0.85 0.78 0.85 0.77 0.99 1.37 1.51 1.57 1.52 1.55 1.64 1.57 1.45
0.36 0.41 0.38 0.32 0.34 0.37 0.36 0.40 0.44 0.44 0.48 0.51 0.55 0.58 0.64 0.68 0.65 0.58 0.61 0.67 0.80 0.82 0.79 0.90 0.94 0.88 0.92 0.98 1.11 1.17 1.10 0.94 1.05 1.06 0.98 1.09 1.23 1.29 1.40 1.50 1.56 1.49 1.44
0.13 0.19 0.21 0.21 0.24 0.31 0.40 0.46 0.44 0.42 0.47 0.49 0.48 0.48 0.53 0.55 0.60 0.51 0.62 0.73 0.78 0.80 0.81 0.87 1.01 0.93 0.90 0.88 0.97 1.12 1.11 0.98 0.86 0.90 0.87 0.77 0.71 0.82 1.02 1.19 1.47 1.58 1.51
0.06 0.08 0.09 0.13 0.19 0.28 0.35 0.34 0.35 0.37 0.41 0.42 0.45 0.44 0.46 0.53 0.64 0.65 0.71 0.73 0.77 0.84 0.93 0.98 0.95 1.03 0.87 0.83 0.84 0.86 0.95 0.95 0.92 0.97 1.05 0.94 0.82 0.77 0.81 0.90 1.10 1.32 1.44
0.04 0.05 0.05 0.06 0.09 0.14 0.21 0.24 0.27 0.31 0.33 0.33 0.33 0.34 0.38 0.50 0.58 0.60 0.62 0.67 0.75 0.76 0.82 0.82 0.79 0.87 0.73 0.64 0.60 0.67 0.75 0.80 0.89 1.01 1.01 0.97 0.96 0.90 0.88 0.91 0.95 1.05 1.15
0.03 0.03 0.03 0.03 0.04 0.07 0.13 0.18 0.22 0.28 0.30 0.29 0.27 0.29 0.33 0.38 0.45 0.49 0.49 0.49 0.52 0.56 0.54 0.63 0.64 0.62 0.58 0.52 0.56 0.61 0.63 0.66 0.77 0.85 0.88 0.85 0.85 0.89 0.90 0.90 0.92 0.95 0.96
0.04 0.03 0.03 0.03 0.04 0.05 0.07 0.14 0.22 0.25 0.24 0.24 0.27 0.29 0.32 0.35 0.36 0.37 0.41 0.41 0.41 0.46 0.45 0.48 0.48 0.48 0.49 0.50 0.53 0.58 0.63 0.68 0.72 0.74 0.75 0.77 0.79 0.86 0.92 0.90 0.89 0.94 0.98
0.04 0.03 0.03 0.03 0.03 0.03 0.03 0.07 0.14 0.17 0.16 0.19 0.24 0.29 0.33 0.36 0.33 0.30 0.30 0.37 0.43 0.48 0.55 0.50 0.47 0.47 0.50 0.56 0.59 0.58 0.62 0.67 0.67 0.66 0.68 0.71 0.70 0.76 0.81 0.82 0.83 0.85 0.85
0.05 0.03 0.03 0.03 0.04 0.04 0.04 0.05 0.07 0.08 0.10 0.10 0.11 0.16 0.15 0.15 0.16 0.16 0.19 0.24 0.32 0.38 0.54 0.61 0.63 0.68 0.71 0.70 0.69 0.61 0.56 0.57 0.63 0.69 0.69 0.69 0.70 0.69 0.73 0.76 0.78 0.82 0.81
0.05 0.04 0.03 0.03 0.03 0.04 0.04 0.07 0.08 0.05 0.03 0.03 0.04 0.06 0.09 0.10 0.12 0.14 0.16 0.20 0.23 0.29 0.49 0.67 0.68 0.66 0.64 0.62 0.59 0.53 0.48 0.45 0.47 0.57 0.67 0.74 0.76 0.75 0.79 0.82 0.80 0.76 0.74
0.06 0.06 0.04 0.04 0.04 0.05 0.06 0.09 0.15 0.18 0.13 0.06 0.04 0.04 0.06 0.07 0.10 0.14 0.21 0.28 0.27 0.30 0.47 0.57 0.59 0.58 0.50 0.45 0.40 0.35 0.35 0.33 0.33 0.39 0.45 0.55 0.70 0.82 0.90 0.91 0.90 0.91 0.89
0.07 0.07 0.06 0.08 0.08 0.08 0.10 0.14 0.16 0.16 0.12 0.08 0.06 0.05 0.05 0.06 0.07 0.09 0.16 0.24 0.25 0.25 0.27 0.29 0.30 0.32 0.32 0.29 0.27 0.27 0.28 0.28 0.30 0.32 0.35 0.40 0.50 0.65 0.83 0.92 0.93 0.96 0.95
0.06 0.07 0.07 0.08 0.09 0.08 0.08 0.10 0.12 0.12 0.09 0.08 0.08 0.08 0.08 0.10 0.11 0.11 0.13 0.17 0.20 0.19 0.17 0.17 0.17 0.17 0.19 0.20 0.21 0.22 0.26 0.28 0.27 0.30 0.36 0.42 0.52 0.58 0.63 0.73 0.85 0.87 0.80
0.05 0.05 0.06 0.07 0.09 0.08 0.08 0.06 0.07 0.09 0.08 0.07 0.07 0.07 0.08 0.13 0.16 0.14 0.13 0.14 0.16 0.17 0.16 0.16 0.16 0.17 0.20 0.25 0.26 0.25 0.26 0.28 0.28 0.30 0.34 0.41 0.50 0.59 0.64 0.66 0.69 0.72 0.75
0.04 0.04 0.05 0.07 0.10 0.10 0.09 0.08 0.08 0.09 0.08 0.08 0.08 0.08 0.09 0.13 0.16 0.16 0.16 0.16 0.18 0.20 0.20 0.21 0.22 0.24 0.25 0.28 0.32 0.32 0.32 0.31 0.30 0.31 0.35 0.38 0.42 0.48 0.55 0.62 0.64 0.65 0.66
0.04 0.04 0.05 0.07 0.10 0.09 0.09 0.09 0.09 0.10 0.10 0.09 0.09 0.09 0.09 0.13 0.14 0.16 0.19 0.19 0.19 0.21 0.23 0.28 0.30 0.30 0.31 0.34 0.36 0.36 0.37 0.37 0.37 0.37 0.41 0.43 0.42 0.43 0.46 0.49 0.52 0.54 0.56
0.06 0.08 0.09 0.11 0.11 0.10 0.10 0.11 0.11 0.10 0.11 0.10 0.11 0.12 0.14 0.15 0.15 0.15 0.15 0.17 0.18 0.21 0.22 0.24 0.27 0.29 0.33 0.38 0.40 0.40 0.40 0.42 0.39 0.37 0.44 0.51 0.51 0.49 0.49 0.50 0.50 0.51 0.56
0.10 0.11 0.12 0.13 0.12 0.12 0.11 0.11 0.12 0.12 0.12 0.13 0.14 0.14 0.15 0.17 0.17 0.17 0.17 0.18 0.19 0.19 0.21 0.22 0.23 0.26 0.31 0.39 0.42 0.42 0.46 0.47 0.45 0.39 0.39 0.46 0.50 0.51 0.53 0.55 0.56 0.61 0.67
0.12 0.12 0.12 0.12 0.13 0.14 0.15 0.15 0.16 0.17 0.17 0.17 0.16 0.17 0.17 0.18 0.18 0.19 0.20 0.21 0.21 0.21 0.22 0.24 0.27 0.27 0.29 0.36 0.43 0.48 0.48 0.46 0.48 0.50 0.45 0.45 0.49 0.53 0.57 0.61 0.64 0.72 0.77